Weather Roundup
Issued by NWS

Home | Current Version | Previous Version | Graphics & Text | Print | Product List | Glossary Off
Versions: 1 2 3 4 5 6 7 8 9 10 11 12 13 14 15 16 17 18 19 20 21 22 23 24 25 26 27 28 29 30 31 32 33 34 35 36 37 38 39 40 41 42 43 44 45 46 47 48 49 50

874
NZUS93 KARX 201859
HRRWXR

CURRENT HOURLY OBSERVATIONS ACROSS
MUCH OF THE UPPER MISSISSIPPI VALLEY
NATIONAL WEATHER SERVICE LA CROSSE WI
100 PM CST MON FEB 20 2017


...SOUTHEAST MINNESOTA...


CITY           SKY/WX    TMP DP  RH WIND       PRES   REMARKS
ROCHESTER      LGT RAIN  49  49 100 S17       29.76F FOG
ROCHESTER/MAYO CLOUDY    49  50 100 SE12G18   29.76F
WINONA         LGT RAIN  50  46  87 SE8       29.80F
AUSTIN         RAIN      50  48  93 S10G17    29.75F
ALBERT LEA     RAIN      52  50  93 S14       29.73F
DODGE CENTER   NOT AVBL
PRESTON        LGT RAIN  48  46  95 SE12      29.79F
OWATONNA       RAIN      52  48  87 S17       29.72F
FARIBAULT      LGT RAIN  52  52 100 SE13G18   29.72F
$$

...ELSEWHERE IN MINNESOTA...


CITY           SKY/WX    TMP DP  RH WIND       PRES   REMARKS
MINNEAPOLIS    LGT RAIN  50  47  89 SE13      29.71F FOG
INTNL FALLS    LGT RAIN  42  40  92 SE5       29.64F FOG
DULUTH         LGT RAIN  42  38  85 SE9       29.75S FOG
RED WING       RAIN      50  48  93 SE9       29.74F
REDWOOD FALLS  LGT RAIN  54  52  93 S10       29.65F FOG
MANKATO        LGT RAIN  53  51  93 S12       29.69F FOG
WORTHINGTON    CLOUDY    55  54  96 S16       29.66F FOG
FAIRMONT       LGT RAIN  54  53  97 S15       29.69F FOG
$$

...SOUTHWEST WISCONSIN...


CITY           SKY/WX    TMP DP  RH WIND       PRES   REMARKS
LA CROSSE      CLOUDY    56  50  80 SE10      29.82F
PRAIRIE DU CHI CLOUDY    54  48  80 E10       29.85F HAZE
BOSCOBEL       CLOUDY    57  49  74 VRB3      29.89F HAZE
LONE ROCK      NOT AVBL
PLATTEVILLE    CLOUDY    57  53  85 SE14      29.91F
FORT MC COY    CLOUDY    57  51  81 SE7       29.86F
MAUSTON-NEW LI CLOUDY    58  51  78 SE9       29.90F
VIROQUA        CLOUDY    53  50  92 SE17G23   29.85F
WIS DELLS      CLOUDY    56  48  75 S14       29.92F
$$

...ELSEWHERE IN WISCONSIN...


CITY           SKY/WX    TMP DP  RH WIND       PRES   REMARKS
MILWAUKEE      CLOUDY    51  43  74 SE10      30.05F HAZE
MADISON        CLOUDY    59  49  69 SE17      29.95F
GREEN BAY      CLOUDY    51  44  77 SE13      30.04F
EAU CLAIRE     LGT RAIN  49  46  90 SE18G26   29.78F FOG
BLACK RVR FLS  CLOUDY    56  47  70 SE7       29.83F
MEDFORD        CLOUDY    46  38  72 SE13G18   29.88F
WAUSAU         MOSUNNY   47  38  71 SE10G22   29.91F
WIS RAPIDS     PTSUNNY   56  48  74 SE14G21   29.91F
MARSHFIELD     CLOUDY    45  38  76 SE13      29.88F
RICE LAKE      LGT RAIN  45  43  92 E16       29.76F
$$

...NORTHEAST IOWA...


CITY           SKY/WX    TMP DP  RH WIND       PRES   REMARKS
WATERLOO       LGT RAIN  55  53  93 SE15      29.78F FOG
DUBUQUE        CLOUDY    57  50  77 S20       29.88F
DECORAH        CLOUDY    52  50  93 SE16      29.82F FOG
MASON CITY     LGT RAIN  50  49  96 S16G26    29.75F FOG
CHARLES CITY   LGT RAIN  52  52 100 SE15      29.78F VSB 1
OELWEIN        CLOUDY    54  54 100 SE15      29.81F FOG
$$

...ELSEWHERE IN IOWA...


CITY           SKY/WX    TMP DP  RH WIND       PRES   REMARKS
DES MOINES     LGT RAIN  60  57  89 S16       29.77F FOG
IOWA CITY      LGT RAIN  63  53  70 SE13G21   29.86F
FORT DODGE     CLOUDY    55  54  94 S10G17    29.73F
MARSHALLTOWN   LGT RAIN  57  56  96 S16       29.78S FOG
CEDAR RAPIDS   LGT RAIN  59  54  83 SE10      29.83F
$$

...NORTHERN ILLINOIS...


CITY           SKY/WX    TMP DP  RH WIND       PRES   REMARKS
CHICAGO-OHARE  CLOUDY    67  48  50 SE17      30.03F
CHICAGO-MIDWAY PTSUNNY   67  46  47 SE16      30.04F
MOLINE         CLOUDY    68  52  56 S14G26    29.89F
ROCKFORD       CLOUDY    66  51  58 S17       29.99F
PEORIA         CLOUDY    69  51  52 S20G26    29.96F
$$

NOTE: "FAIR" INDICATES FEW OR NO CLOUDS BELOW 12,000 FEET WITH NO
SIGNIFICANT WEATHER AND/OR OBSTRUCTIONS TO VISIBILITY. WIND
SPEEDS ARE IN MILES-PER-HOUR.




USA.gov is the U.S. government's official web portal to all federal, state and local government web resources and services.